Time,TemperatureF,DewpointF,PressureIn,WindDirection,WindDirectionDegrees,WindSpeedMPH,WindSpeedGustMPH,Humidity,HourlyPrecipIn,Conditions,Clouds,dailyrainin,SolarRadiationWatts/m^2,SoftwareType,DateUTC
2013-03-13 00:03:00,55.6,51.4,30.11,West,275,0.0,0.0,86,0.00,,,0.00,0,HR-IXP-WINDi_r2_v1.2,2013-03-13 07:03:00,
2013-03-13 00:08:00,55.5,51.3,30.11,West,275,0.0,1.0,86,0.00,,,0.00,0,HR-IXP-WINDi_r2_v1.2,2013-03-13 07:08:00,
2013-03-13 00:13:00,55.4,51.2,30.11,West,275,0.0,1.0,86,0.00,,,0.00,0,HR-IXP-WINDi_r2_v1.2,2013-03-13 07:13:00,
2013-03-13 00:19:00,54.9,50.7,30.11,West,275,0.0,0.0,86,0.00,,,0.00,0,HR-IXP-WINDi_r2_v1.2,2013-03-13 07:19:00,
2013-03-13 00:24:00,55.0,50.8,30.11,West,275,0.0,0.0,86,0.00,,,0.00,0,HR-IXP-WINDi_r2_v1.2,2013-03-13 07:24:00,
2013-03-13 00:29:00,54.8,50.9,30.11,West,275,0.0,0.0,87,0.00,,,0.00,0,HR-IXP-WINDi_r2_v1.2,2013-03-13 07:29:00,
2013-03-13 00:34:00,54.7,50.8,30.10,West,275,0.0,0.0,87,0.00,,,0.00,0,HR-IXP-WINDi_r2_v1.2,2013-03-13 07:34:00,
2013-03-13 00:39:00,54.9,51.0,30.10,West,275,0.0,0.0,87,0.00,,,0.00,0,HR-IXP-WINDi_r2_v1.2,2013-03-13 07:39:00,
2013-03-13 00:44:00,54.8,50.9,30.10,West,275,0.0,0.0,87,0.00,,,0.00,0,HR-IXP-WINDi_r2_v1.2,2013-03-13 07:44:00,
2013-03-13 00:49:00,54.5,50.6,30.10,West,275,0.0,0.0,87,0.00,,,0.00,0,HR-IXP-WINDi_r2_v1.2,2013-03-13 07:49:00,
2013-03-13 00:54:00,54.3,50.8,30.10,West,275,0.0,0.0,88,0.00,,,0.00,0,HR-IXP-WINDi_r2_v1.2,2013-03-13 07:54:00,
2013-03-13 00:59:00,54.1,50.3,30.10,West,275,0.0,0.0,87,0.00,,,0.00,0,HR-IXP-WINDi_r2_v1.2,2013-03-13 07:59:00,
2013-03-13 01:04:00,53.9,50.1,30.11,West,275,0.0,0.0,87,0.00,,,0.00,0,HR-IXP-WINDi_r2_v1.2,2013-03-13 08:04:00,
2013-03-13 01:10:00,53.7,50.2,30.10,West,275,0.0,0.0,88,0.00,,,0.00,0,HR-IXP-WINDi_r2_v1.2,2013-03-13 08:10:00,
2013-03-13 01:15:00,53.7,50.2,30.11,West,275,0.0,0.0,88,0.00,,,0.00,0,HR-IXP-WINDi_r2_v1.2,2013-03-13 08:15:00,
2013-03-13 01:20:00,53.6,50.1,30.11,West,275,0.0,0.0,88,0.00,,,0.00,0,HR-IXP-WINDi_r2_v1.2,2013-03-13 08:20:00,
2013-03-13 01:25:00,53.4,49.9,30.11,West,275,0.0,0.0,88,0.00,,,0.00,0,HR-IXP-WINDi_r2_v1.2,2013-03-13 08:25:00,
2013-03-13 01:30:00,53.2,49.7,30.10,West,275,0.0,0.0,88,0.00,,,0.00,0,HR-IXP-WINDi_r2_v1.2,2013-03-13 08:30:00,
2013-03-13 01:35:00,53.3,49.8,30.11,West,275,0.0,0.0,88,0.00,,,0.00,0,HR-IXP-WINDi_r2_v1.2,2013-03-13 08:35:00,
2013-03-13 01:41:00,53.1,49.6,30.10,West,275,0.0,0.0,88,0.00,,,0.00,0,HR-IXP-WINDi_r2_v1.2,2013-03-13 08:41:00,
2013-03-13 01:46:00,53.3,49.8,30.10,West,275,0.0,0.0,88,0.00,,,0.00,0,HR-IXP-WINDi_r2_v1.2,2013-03-13 08:46:00,
2013-03-13 01:51:00,53.4,49.9,30.10,West,275,1.0,1.0,88,0.00,,,0.00,0,HR-IXP-WINDi_r2_v1.2,2013-03-13 08:51:00,
2013-03-13 01:57:00,53.4,50.2,30.10,West,275,0.0,1.0,89,0.00,,,0.00,0,HR-IXP-WINDi_r2_v1.2,2013-03-13 08:57:00,
2013-03-13 02:03:00,53.1,49.9,30.10,West,275,0.0,1.0,89,0.00,,,0.00,0,HR-IXP-WINDi_r2_v1.2,2013-03-13 09:03:00,
2013-03-13 02:08:00,52.6,49.4,30.10,West,275,0.0,1.0,89,0.00,,,0.00,0,HR-IXP-WINDi_r2_v1.2,2013-03-13 09:08:00,
2013-03-13 02:13:00,52.7,49.8,30.10,West,275,0.0,0.0,90,0.00,,,0.00,0,HR-IXP-WINDi_r2_v1.2,2013-03-13 09:13:00,
2013-03-13 02:18:00,52.6,49.4,30.10,West,275,0.0,0.0,89,0.00,,,0.00,0,HR-IXP-WINDi_r2_v1.2,2013-03-13 09:18:00,
2013-03-13 02:23:00,52.4,49.2,30.09,West,275,0.0,0.0,89,0.00,,,0.00,0,HR-IXP-WINDi_r2_v1.2,2013-03-13 09:23:00,
2013-03-13 02:28:00,52.4,49.8,30.09,West,275,0.0,2.0,91,0.00,,,0.00,0,HR-IXP-WINDi_r2_v1.2,2013-03-13 09:28:00,
2013-03-13 02:33:00,52.5,49.9,30.09,West,275,0.0,2.0,91,0.00,,,0.00,0,HR-IXP-WINDi_r2_v1.2,2013-03-13 09:33:00,
2013-03-13 02:38:00,52.5,49.9,30.09,West,275,0.0,2.0,91,0.00,,,0.00,0,HR-IXP-WINDi_r2_v1.2,2013-03-13 09:38:00,
2013-03-13 02:43:00,52.5,50.2,30.09,West,275,0.0,2.0,92,0.00,,,0.00,0,HR-IXP-WINDi_r2_v1.2,2013-03-13 09:43:00,
2013-03-13 02:48:00,52.3,50.0,30.09,West,275,0.0,0.0,92,0.00,,,0.00,0,HR-IXP-WINDi_r2_v1.2,2013-03-13 09:48:00,
2013-03-13 02:54:00,52.2,49.9,30.09,West,275,0.0,1.0,92,0.00,,,0.00,0,HR-IXP-WINDi_r2_v1.2,2013-03-13 09:54:00,
2013-03-13 02:59:00,52.1,49.8,30.09,West,275,0.0,1.0,92,0.00,,,0.00,0,HR-IXP-WINDi_r2_v1.2,2013-03-13 09:59:00,
2013-03-13 03:04:00,52.1,50.1,30.09,West,275,0.0,1.0,93,0.00,,,0.00,0,HR-IXP-WINDi_r2_v1.2,2013-03-13 10:04:00,
2013-03-13 03:09:00,52.1,50.1,30.09,West,275,0.0,1.0,93,0.00,,,0.00,0,HR-IXP-WINDi_r2_v1.2,2013-03-13 10:09:00,
2013-03-13 03:14:00,52.1,50.1,30.09,West,275,0.0,0.0,93,0.00,,,0.00,0,HR-IXP-WINDi_r2_v1.2,2013-03-13 10:14:00,
2013-03-13 03:19:00,52.0,50.0,30.09,West,275,0.0,0.0,93,0.00,,,0.00,0,HR-IXP-WINDi_r2_v1.2,2013-03-13 10:19:00,
2013-03-13 03:24:00,51.8,49.8,30.09,West,275,0.0,0.0,93,0.00,,,0.00,0,HR-IXP-WINDi_r2_v1.2,2013-03-13 10:24:00,
2013-03-13 03:29:00,51.5,49.5,30.08,West,275,0.0,0.0,93,0.00,,,0.00,0,HR-IXP-WINDi_r2_v1.2,2013-03-13 10:29:00,
2013-03-13 03:34:00,51.3,49.3,30.08,West,275,0.0,0.0,93,0.00,,,0.00,0,HR-IXP-WINDi_r2_v1.2,2013-03-13 10:34:00,
2013-03-13 03:39:00,51.3,49.6,30.08,West,275,0.0,0.0,94,0.00,,,0.00,0,HR-IXP-WINDi_r2_v1.2,2013-03-13 10:39:00,
2013-03-13 03:45:00,51.3,49.6,30.09,West,275,0.0,0.0,94,0.00,,,0.00,0,HR-IXP-WINDi_r2_v1.2,2013-03-13 10:45:00,
2013-03-13 03:50:00,50.9,49.2,30.08,West,275,0.0,0.0,94,0.00,,,0.00,0,HR-IXP-WINDi_r2_v1.2,2013-03-13 10:50:00,
2013-03-13 03:55:00,50.9,49.2,30.09,West,275,0.0,0.0,94,0.00,,,0.00,0,HR-IXP-WINDi_r2_v1.2,2013-03-13 10:55:00,
2013-03-13 04:00:00,51.3,49.9,30.09,West,275,0.0,0.0,95,0.00,,,0.00,0,HR-IXP-WINDi_r2_v1.2,2013-03-13 11:00:00,
2013-03-13 04:05:00,51.3,49.9,30.09,West,275,0.0,1.0,95,0.00,,,0.00,0,HR-IXP-WINDi_r2_v1.2,2013-03-13 11:05:00,
2013-03-13 04:11:00,51.4,50.0,30.09,West,275,0.0,1.0,95,0.00,,,0.00,0,HR-IXP-WINDi_r2_v1.2,2013-03-13 11:11:00,
2013-03-13 04:16:00,51.2,49.8,30.09,West,275,0.0,1.0,95,0.00,,,0.00,0,HR-IXP-WINDi_r2_v1.2,2013-03-13 11:16:00,
2013-03-13 04:21:00,51.0,49.6,30.09,West,275,0.0,0.0,95,0.00,,,0.00,0,HR-IXP-WINDi_r2_v1.2,2013-03-13 11:21:00,
2013-03-13 04:27:00,50.7,49.3,30.09,West,275,0.0,0.0,95,0.00,,,0.00,0,HR-IXP-WINDi_r2_v1.2,2013-03-13 11:27:00,
2013-03-13 04:32:00,50.6,49.2,30.09,West,275,0.0,0.0,95,0.00,,,0.00,0,HR-IXP-WINDi_r2_v1.2,2013-03-13 11:32:00,
2013-03-13 04:37:00,50.5,49.1,30.09,West,275,0.0,0.0,95,0.00,,,0.00,0,HR-IXP-WINDi_r2_v1.2,2013-03-13 11:37:00,
2013-03-13 04:42:00,50.3,48.9,30.09,West,275,0.0,0.0,95,0.00,,,0.00,0,HR-IXP-WINDi_r2_v1.2,2013-03-13 11:42:00,
2013-03-13 04:47:00,50.2,49.0,30.09,West,275,0.0,0.0,96,0.00,,,0.00,0,HR-IXP-WINDi_r2_v1.2,2013-03-13 11:47:00,
2013-03-13 04:52:00,50.1,48.7,30.09,West,275,0.0,0.0,95,0.00,,,0.00,0,HR-IXP-WINDi_r2_v1.2,2013-03-13 11:52:00,
2013-03-13 04:58:00,50.1,48.9,30.09,West,275,0.0,1.0,96,0.00,,,0.00,0,HR-IXP-WINDi_r2_v1.2,2013-03-13 11:58:00,
2013-03-13 05:03:00,50.1,48.9,30.09,West,275,0.0,1.0,96,0.00,,,0.00,0,HR-IXP-WINDi_r2_v1.2,2013-03-13 12:03:00,
2013-03-13 05:08:00,50.1,48.9,30.09,West,275,0.0,0.0,96,0.00,,,0.00,0,HR-IXP-WINDi_r2_v1.2,2013-03-13 12:08:00,
2013-03-13 05:13:00,49.8,48.6,30.09,West,275,0.0,1.0,96,0.00,,,0.00,0,HR-IXP-WINDi_r2_v1.2,2013-03-13 12:13:00,
2013-03-13 05:18:00,49.7,48.5,30.09,West,275,0.0,1.0,96,0.00,,,0.00,0,HR-IXP-WINDi_r2_v1.2,2013-03-13 12:18:00,
2013-03-13 05:24:00,49.4,48.2,30.09,West,275,0.0,1.0,96,0.00,,,0.00,0,HR-IXP-WINDi_r2_v1.2,2013-03-13 12:24:00,
2013-03-13 05:29:00,49.3,48.1,30.09,West,275,0.0,1.0,96,0.00,,,0.00,0,HR-IXP-WINDi_r2_v1.2,2013-03-13 12:29:00,
2013-03-13 05:34:00,49.4,48.2,30.09,West,275,0.0,0.0,96,0.00,,,0.00,0,HR-IXP-WINDi_r2_v1.2,2013-03-13 12:34:00,
2013-03-13 05:39:00,49.2,48.0,30.09,West,275,0.0,0.0,96,0.00,,,0.00,0,HR-IXP-WINDi_r2_v1.2,2013-03-13 12:39:00,
2013-03-13 05:44:00,49.2,48.0,30.09,West,275,0.0,0.0,96,0.00,,,0.00,0,HR-IXP-WINDi_r2_v1.2,2013-03-13 12:44:00,
2013-03-13 05:49:00,49.2,48.0,30.09,West,275,0.0,0.0,96,0.00,,,0.00,0,HR-IXP-WINDi_r2_v1.2,2013-03-13 12:49:00,
2013-03-13 05:54:00,49.3,48.1,30.09,West,275,0.0,0.0,96,0.00,,,0.00,0,HR-IXP-WINDi_r2_v1.2,2013-03-13 12:54:00,
2013-03-13 06:00:00,49.3,48.1,30.09,West,275,0.0,0.0,96,0.00,,,0.00,0,HR-IXP-WINDi_r2_v1.2,2013-03-13 13:00:00,
2013-03-13 06:05:00,49.3,48.1,30.09,West,275,0.0,0.0,96,0.00,,,0.00,0,HR-IXP-WINDi_r2_v1.2,2013-03-13 13:05:00,
2013-03-13 06:10:00,49.4,48.2,30.09,West,275,0.0,0.0,96,0.00,,,0.00,0,HR-IXP-WINDi_r2_v1.2,2013-03-13 13:10:00,
2013-03-13 06:15:00,49.3,48.1,30.09,West,275,0.0,0.0,96,0.00,,,0.00,0,HR-IXP-WINDi_r2_v1.2,2013-03-13 13:15:00,
2013-03-13 06:20:00,48.9,47.7,30.09,West,275,0.0,1.0,96,0.00,,,0.00,0,HR-IXP-WINDi_r2_v1.2,2013-03-13 13:20:00,
2013-03-13 06:25:00,49.1,48.2,30.09,West,275,0.0,1.0,97,0.00,,,0.00,0,HR-IXP-WINDi_r2_v1.2,2013-03-13 13:25:00,
2013-03-13 06:31:00,49.0,48.1,30.10,West,275,0.0,0.0,97,0.00,,,0.00,0,HR-IXP-WINDi_r2_v1.2,2013-03-13 13:31:00,
2013-03-13 06:36:00,49.1,48.2,30.10,West,275,1.0,1.0,97,0.00,,,0.00,0,HR-IXP-WINDi_r2_v1.2,2013-03-13 13:36:00,
2013-03-13 06:41:00,49.2,48.3,30.10,West,275,0.0,1.0,97,0.00,,,0.00,0,HR-IXP-WINDi_r2_v1.2,2013-03-13 13:41:00,
2013-03-13 06:47:00,49.3,48.4,30.10,West,275,1.0,1.0,97,0.00,,,0.00,0,HR-IXP-WINDi_r2_v1.2,2013-03-13 13:47:00,
2013-03-13 06:52:00,49.2,48.3,30.09,West,275,0.0,1.0,97,0.00,,,0.00,0,HR-IXP-WINDi_r2_v1.2,2013-03-13 13:52:00,
2013-03-13 06:57:00,49.1,48.2,30.09,West,275,0.0,1.0,97,0.00,,,0.00,0,HR-IXP-WINDi_r2_v1.2,2013-03-13 13:57:00,
2013-03-13 07:02:00,49.0,48.1,30.09,West,275,0.0,0.0,97,0.00,,,0.00,0,HR-IXP-WINDi_r2_v1.2,2013-03-13 14:02:00,
2013-03-13 07:07:00,49.0,48.1,30.09,West,275,1.0,1.0,97,0.00,,,0.00,5,HR-IXP-WINDi_r2_v1.2,2013-03-13 14:07:00,
2013-03-13 07:12:00,49.1,48.2,30.10,West,275,0.0,2.0,97,0.00,,,0.00,9,HR-IXP-WINDi_r2_v1.2,2013-03-13 14:12:00,
2013-03-13 07:18:00,49.2,48.3,30.10,West,275,0.0,2.0,97,0.00,,,0.00,14,HR-IXP-WINDi_r2_v1.2,2013-03-13 14:18:00,
2013-03-13 07:23:00,49.4,48.5,30.10,West,275,0.0,2.0,97,0.00,,,0.00,21,HR-IXP-WINDi_r2_v1.2,2013-03-13 14:23:00,
2013-03-13 07:28:00,49.7,48.8,30.10,West,275,1.0,2.0,97,0.00,,,0.00,30,HR-IXP-WINDi_r2_v1.2,2013-03-13 14:28:00,
2013-03-13 07:33:00,50.1,49.2,30.10,West,275,1.0,2.0,97,0.00,,,0.00,39,HR-IXP-WINDi_r2_v1.2,2013-03-13 14:33:00,
2013-03-13 07:38:00,50.2,49.3,30.10,West,275,1.0,2.0,97,0.00,,,0.00,53,HR-IXP-WINDi_r2_v1.2,2013-03-13 14:38:00,
2013-03-13 07:44:00,50.5,49.6,30.10,West,275,0.0,2.0,97,0.00,,,0.00,65,HR-IXP-WINDi_r2_v1.2,2013-03-13 14:44:00,
2013-03-13 07:49:00,50.8,49.9,30.10,West,275,0.0,2.0,97,0.00,,,0.00,79,HR-IXP-WINDi_r2_v1.2,2013-03-13 14:49:00,
2013-03-13 07:54:00,51.1,50.2,30.11,West,275,1.0,3.0,97,0.00,,,0.00,95,HR-IXP-WINDi_r2_v1.2,2013-03-13 14:54:00,
2013-03-13 07:59:00,51.5,50.6,30.11,West,275,0.0,3.0,97,0.00,,,0.00,109,HR-IXP-WINDi_r2_v1.2,2013-03-13 14:59:00,
2013-03-13 08:05:00,52.0,51.1,30.11,West,275,0.0,1.0,97,0.00,,,0.00,113,HR-IXP-WINDi_r2_v1.2,2013-03-13 15:05:00,
2013-03-13 08:10:00,52.4,51.2,30.11,West,275,0.0,1.0,96,0.00,,,0.00,111,HR-IXP-WINDi_r2_v1.2,2013-03-13 15:10:00,
2013-03-13 08:15:00,52.8,51.6,30.11,West,275,0.0,1.0,96,0.00,,,0.00,134,HR-IXP-WINDi_r2_v1.2,2013-03-13 15:15:00,
2013-03-13 08:20:00,53.2,52.0,30.12,West,275,0.0,2.0,96,0.00,,,0.00,167,HR-IXP-WINDi_r2_v1.2,2013-03-13 15:20:00,
2013-03-13 08:25:00,53.4,52.2,30.12,West,275,0.0,2.0,96,0.00,,,0.00,186,HR-IXP-WINDi_r2_v1.2,2013-03-13 15:25:00,
2013-03-13 08:30:00,53.8,52.3,30.12,West,275,0.0,1.0,95,0.00,,,0.00,202,HR-IXP-WINDi_r2_v1.2,2013-03-13 15:30:00,
2013-03-13 08:35:00,54.5,53.0,30.12,West,275,0.0,1.0,95,0.00,,,0.00,218,HR-IXP-WINDi_r2_v1.2,2013-03-13 15:35:00,
2013-03-13 08:40:00,55.1,53.3,30.12,West,275,2.0,2.0,94,0.00,,,0.00,234,HR-IXP-WINDi_r2_v1.2,2013-03-13 15:40:00,
2013-03-13 08:45:00,55.5,53.4,30.12,West,275,1.0,2.0,93,0.00,,,0.00,251,HR-IXP-WINDi_r2_v1.2,2013-03-13 15:45:00,
2013-03-13 08:51:00,56.2,54.1,30.12,South,186,0.0,3.0,93,0.00,,,0.00,265,HR-IXP-WINDi_r2_v1.2,2013-03-13 15:51:00,
2013-03-13 08:56:00,56.6,54.2,30.13,South,169,3.0,3.0,92,0.00,,,0.00,283,HR-IXP-WINDi_r2_v1.2,2013-03-13 15:56:00,
2013-03-13 09:01:00,56.7,54.0,30.13,South,169,1.0,3.0,91,0.00,,,0.00,299,HR-IXP-WINDi_r2_v1.2,2013-03-13 16:01:00,
2013-03-13 09:06:00,57.1,54.1,30.13,South,169,1.0,3.0,90,0.00,,,0.00,316,HR-IXP-WINDi_r2_v1.2,2013-03-13 16:06:00,
2013-03-13 09:11:00,57.5,54.2,30.14,SSE,168,1.0,3.0,89,0.00,,,0.00,330,HR-IXP-WINDi_r2_v1.2,2013-03-13 16:11:00,
2013-03-13 09:16:00,57.6,54.3,30.14,SSE,168,1.0,3.0,89,0.00,,,0.00,352,HR-IXP-WINDi_r2_v1.2,2013-03-13 16:16:00,
2013-03-13 09:21:00,58.1,54.5,30.14,South,169,1.0,3.0,88,0.00,,,0.00,374,HR-IXP-WINDi_r2_v1.2,2013-03-13 16:21:00,
2013-03-13 09:27:00,58.1,53.9,30.14,SSW,211,1.0,5.0,86,0.00,,,0.00,392,HR-IXP-WINDi_r2_v1.2,2013-03-13 16:27:00,
2013-03-13 09:32:00,58.3,54.4,30.14,SSE,158,1.0,5.0,87,0.00,,,0.00,410,HR-IXP-WINDi_r2_v1.2,2013-03-13 16:32:00,
2013-03-13 09:37:00,58.4,54.2,30.14,SSE,164,0.0,5.0,86,0.00,,,0.00,425,HR-IXP-WINDi_r2_v1.2,2013-03-13 16:37:00,
2013-03-13 09:42:00,58.3,54.1,30.14,SSE,163,2.0,5.0,86,0.00,,,0.00,438,HR-IXP-WINDi_r2_v1.2,2013-03-13 16:42:00,
2013-03-13 09:47:00,58.1,53.9,30.14,SSE,166,1.0,5.0,86,0.00,,,0.00,455,HR-IXP-WINDi_r2_v1.2,2013-03-13 16:47:00,
2013-03-13 09:53:00,59.1,55.2,30.14,SSE,157,0.0,4.0,87,0.00,,,0.00,471,HR-IXP-WINDi_r2_v1.2,2013-03-13 16:53:00,
2013-03-13 09:58:00,59.6,55.3,30.14,South,175,2.0,5.0,86,0.00,,,0.00,492,HR-IXP-WINDi_r2_v1.2,2013-03-13 16:58:00,
2013-03-13 10:03:00,59.3,54.7,30.14,South,169,1.0,5.0,85,0.00,,,0.00,504,HR-IXP-WINDi_r2_v1.2,2013-03-13 17:03:00,
2013-03-13 10:08:00,59.1,54.5,30.14,SSW,192,2.0,4.0,85,0.00,,,0.00,519,HR-IXP-WINDi_r2_v1.2,2013-03-13 17:08:00,
2013-03-13 10:13:00,60.0,55.1,30.14,SSE,165,2.0,4.0,84,0.00,,,0.00,531,HR-IXP-WINDi_r2_v1.2,2013-03-13 17:13:00,
2013-03-13 10:18:00,61.2,55.6,30.14,SSE,159,3.0,5.0,82,0.00,,,0.00,547,HR-IXP-WINDi_r2_v1.2,2013-03-13 17:18:00,
2013-03-13 10:23:00,61.5,56.2,30.14,South,177,2.0,5.0,83,0.00,,,0.00,559,HR-IXP-WINDi_r2_v1.2,2013-03-13 17:23:00,
2013-03-13 10:29:00,62.7,56.7,30.14,SSE,148,1.0,4.0,81,0.00,,,0.00,571,HR-IXP-WINDi_r2_v1.2,2013-03-13 17:29:00,
2013-03-13 10:34:00,62.8,55.8,30.14,SSW,202,2.0,4.0,78,0.00,,,0.00,585,HR-IXP-WINDi_r2_v1.2,2013-03-13 17:34:00,
2013-03-13 10:39:00,62.5,55.8,30.14,SSE,159,3.0,4.0,79,0.00,,,0.00,599,HR-IXP-WINDi_r2_v1.2,2013-03-13 17:39:00,
2013-03-13 10:44:00,62.2,55.5,30.14,SW,223,4.0,5.0,79,0.00,,,0.00,613,HR-IXP-WINDi_r2_v1.2,2013-03-13 17:44:00,
2013-03-13 10:49:00,61.8,55.5,30.14,SSW,213,4.0,6.0,80,0.00,,,0.00,619,HR-IXP-WINDi_r2_v1.2,2013-03-13 17:49:00,
2013-03-13 10:54:00,61.7,55.7,30.14,South,179,3.0,6.0,81,0.00,,,0.00,612,HR-IXP-WINDi_r2_v1.2,2013-03-13 17:54:00,
2013-03-13 10:59:00,62.3,56.0,30.14,WSW,252,1.0,6.0,80,0.00,,,0.00,622,HR-IXP-WINDi_r2_v1.2,2013-03-13 17:59:00,
2013-03-13 11:04:00,62.8,56.1,30.14,WSW,238,3.0,6.0,79,0.00,,,0.00,647,HR-IXP-WINDi_r2_v1.2,2013-03-13 18:04:00,
2013-03-13 11:10:00,61.9,55.3,30.14,West,270,0.0,4.0,79,0.00,,,0.00,668,HR-IXP-WINDi_r2_v1.2,2013-03-13 18:10:00,
2013-03-13 11:15:00,63.9,56.8,30.14,SSE,157,3.0,4.0,78,0.00,,,0.00,677,HR-IXP-WINDi_r2_v1.2,2013-03-13 18:15:00,
2013-03-13 11:20:00,63.4,55.6,30.14,WSW,240,2.0,4.0,76,0.00,,,0.00,673,HR-IXP-WINDi_r2_v1.2,2013-03-13 18:20:00,
2013-03-13 11:25:00,63.9,56.5,30.14,South,180,1.0,4.0,77,0.00,,,0.00,601,HR-IXP-WINDi_r2_v1.2,2013-03-13 18:25:00,
2013-03-13 11:30:00,65.2,57.0,30.14,South,185,3.0,4.0,75,0.00,,,0.00,584,HR-IXP-WINDi_r2_v1.2,2013-03-13 18:30:00,
2013-03-13 11:35:00,67.5,58.5,30.14,SSE,167,2.0,4.0,73,0.00,,,0.00,657,HR-IXP-WINDi_r2_v1.2,2013-03-13 18:35:00,
2013-03-13 11:41:00,66.6,56.1,30.14,SW,222,2.0,4.0,69,0.00,,,0.00,719,HR-IXP-WINDi_r2_v1.2,2013-03-13 18:41:00,
2013-03-13 11:46:00,66.3,56.6,30.13,SW,221,0.0,4.0,71,0.00,,,0.00,728,HR-IXP-WINDi_r2_v1.2,2013-03-13 18:46:00,
2013-03-13 11:51:00,66.2,56.1,30.13,SW,216,4.0,7.0,70,0.00,,,0.00,735,HR-IXP-WINDi_r2_v1.2,2013-03-13 18:51:00,
2013-03-13 11:57:00,67.0,56.0,30.13,SSW,196,1.0,7.0,68,0.00,,,0.00,744,HR-IXP-WINDi_r2_v1.2,2013-03-13 18:57:00,
2013-03-13 12:02:00,69.4,57.5,30.13,SSE,157,2.0,4.0,66,0.00,,,0.00,747,HR-IXP-WINDi_r2_v1.2,2013-03-13 19:02:00,
2013-03-13 12:07:00,72.6,57.9,30.13,SSE,153,1.0,4.0,60,0.00,,,0.00,754,HR-IXP-WINDi_r2_v1.2,2013-03-13 19:07:00,
2013-03-13 12:12:00,71.3,57.1,30.13,SSE,157,2.0,4.0,61,0.00,,,0.00,761,HR-IXP-WINDi_r2_v1.2,2013-03-13 19:12:00,
2013-03-13 12:17:00,73.0,58.2,30.13,SSE,157,2.0,3.0,60,0.00,,,0.00,763,HR-IXP-WINDi_r2_v1.2,2013-03-13 19:17:00,
2013-03-13 12:22:00,70.9,55.8,30.12,SW,216,0.0,5.0,59,0.00,,,0.00,768,HR-IXP-WINDi_r2_v1.2,2013-03-13 19:22:00,
2013-03-13 12:28:00,71.2,57.0,30.12,South,172,2.0,5.0,61,0.00,,,0.00,775,HR-IXP-WINDi_r2_v1.2,2013-03-13 19:28:00,
2013-03-13 12:33:00,73.5,57.8,30.12,SSE,150,2.0,5.0,58,0.00,,,0.00,773,HR-IXP-WINDi_r2_v1.2,2013-03-13 19:33:00,
2013-03-13 12:38:00,71.7,56.6,30.12,South,178,1.0,6.0,59,0.00,,,0.00,775,HR-IXP-WINDi_r2_v1.2,2013-03-13 19:38:00,
2013-03-13 12:43:00,72.3,57.1,30.11,SSW,194,3.0,6.0,59,0.00,,,0.00,777,HR-IXP-WINDi_r2_v1.2,2013-03-13 19:43:00,
2013-03-13 12:48:00,72.0,56.8,30.11,SSW,211,3.0,6.0,59,0.00,,,0.00,780,HR-IXP-WINDi_r2_v1.2,2013-03-13 19:48:00,
2013-03-13 12:54:00,72.1,57.4,30.11,South,176,2.0,5.0,60,0.00,,,0.00,786,HR-IXP-WINDi_r2_v1.2,2013-03-13 19:54:00,
2013-03-13 12:59:00,71.4,57.6,30.11,SSW,196,3.0,7.0,62,0.00,,,0.00,786,HR-IXP-WINDi_r2_v1.2,2013-03-13 19:59:00,
2013-03-13 13:04:00,71.5,57.3,30.11,SW,221,4.0,7.0,61,0.00,,,0.00,786,HR-IXP-WINDi_r2_v1.2,2013-03-13 20:04:00,
2013-03-13 13:09:00,71.2,57.5,30.11,SSW,207,3.0,8.0,62,0.00,,,0.00,784,HR-IXP-WINDi_r2_v1.2,2013-03-13 20:09:00,
2013-03-13 13:14:00,71.6,57.4,30.10,SSW,203,2.0,8.0,61,0.00,,,0.00,780,HR-IXP-WINDi_r2_v1.2,2013-03-13 20:14:00,
2013-03-13 13:20:00,71.7,57.9,30.10,South,186,4.0,8.0,62,0.00,,,0.00,782,HR-IXP-WINDi_r2_v1.2,2013-03-13 20:20:00,
2013-03-13 13:25:00,71.1,57.4,30.09,SW,230,3.0,8.0,62,0.00,,,0.00,779,HR-IXP-WINDi_r2_v1.2,2013-03-13 20:25:00,
2013-03-13 13:30:00,71.6,57.8,30.09,SW,232,4.0,8.0,62,0.00,,,0.00,777,HR-IXP-WINDi_r2_v1.2,2013-03-13 20:30:00,
2013-03-13 13:35:00,72.2,57.9,30.09,SW,219,3.0,7.0,61,0.00,,,0.00,773,HR-IXP-WINDi_r2_v1.2,2013-03-13 20:35:00,
2013-03-13 13:40:00,72.1,57.9,30.09,South,187,3.0,7.0,61,0.00,,,0.00,770,HR-IXP-WINDi_r2_v1.2,2013-03-13 20:40:00,
2013-03-13 13:45:00,72.8,58.1,30.08,SSW,194,3.0,7.0,60,0.00,,,0.00,768,HR-IXP-WINDi_r2_v1.2,2013-03-13 20:45:00,
2013-03-13 13:50:00,71.9,57.7,30.08,SW,232,7.0,8.0,61,0.00,,,0.00,761,HR-IXP-WINDi_r2_v1.2,2013-03-13 20:50:00,
2013-03-13 13:56:00,71.8,58.0,30.08,SW,217,6.0,8.0,62,0.00,,,0.00,756,HR-IXP-WINDi_r2_v1.2,2013-03-13 20:56:00,
2013-03-13 14:01:00,71.8,58.0,30.08,WSW,253,3.0,7.0,62,0.00,,,0.00,754,HR-IXP-WINDi_r2_v1.2,2013-03-13 21:01:00,
2013-03-13 14:06:00,71.7,58.4,30.07,WSW,255,6.0,9.0,63,0.00,,,0.00,745,HR-IXP-WINDi_r2_v1.2,2013-03-13 21:06:00,
2013-03-13 14:11:00,71.3,58.4,30.07,SW,227,4.0,9.0,64,0.00,,,0.00,742,HR-IXP-WINDi_r2_v1.2,2013-03-13 21:11:00,
2013-03-13 14:16:00,70.9,57.6,30.07,SSW,200,3.0,8.0,63,0.00,,,0.00,735,HR-IXP-WINDi_r2_v1.2,2013-03-13 21:16:00,
2013-03-13 14:22:00,70.7,57.9,30.07,SW,227,3.0,8.0,64,0.00,,,0.00,729,HR-IXP-WINDi_r2_v1.2,2013-03-13 21:22:00,
2013-03-13 14:27:00,70.6,56.9,30.07,WSW,238,2.0,8.0,62,0.00,,,0.00,721,HR-IXP-WINDi_r2_v1.2,2013-03-13 21:27:00,
2013-03-13 14:32:00,70.7,57.9,30.07,South,191,5.0,9.0,64,0.00,,,0.00,714,HR-IXP-WINDi_r2_v1.2,2013-03-13 21:32:00,
2013-03-13 14:37:00,70.3,57.5,30.07,South,187,3.0,9.0,64,0.00,,,0.00,705,HR-IXP-WINDi_r2_v1.2,2013-03-13 21:37:00,
2013-03-13 14:43:00,69.6,57.3,30.06,SW,219,6.0,8.0,65,0.00,,,0.00,696,HR-IXP-WINDi_r2_v1.2,2013-03-13 21:43:00,
2013-03-13 14:48:00,69.8,57.9,30.07,SW,223,4.0,8.0,66,0.00,,,0.00,689,HR-IXP-WINDi_r2_v1.2,2013-03-13 21:48:00,
2013-03-13 14:53:00,68.9,57.0,30.07,SSW,213,7.0,9.0,66,0.00,,,0.00,675,HR-IXP-WINDi_r2_v1.2,2013-03-13 21:53:00,
2013-03-13 14:58:00,68.0,56.6,30.07,SSW,194,3.0,9.0,67,0.00,,,0.00,666,HR-IXP-WINDi_r2_v1.2,2013-03-13 21:58:00,
2013-03-13 15:03:00,68.1,57.1,30.06,SSW,196,8.0,8.0,68,0.00,,,0.00,656,HR-IXP-WINDi_r2_v1.2,2013-03-13 22:03:00,
2013-03-13 15:08:00,69.6,57.3,30.06,South,177,2.0,8.0,65,0.00,,,0.00,647,HR-IXP-WINDi_r2_v1.2,2013-03-13 22:08:00,
2013-03-13 15:14:00,69.3,56.5,30.06,SW,217,6.0,8.0,64,0.00,,,0.00,636,HR-IXP-WINDi_r2_v1.2,2013-03-13 22:14:00,
2013-03-13 15:19:00,69.0,56.7,30.06,SSW,208,6.0,9.0,65,0.00,,,0.00,624,HR-IXP-WINDi_r2_v1.2,2013-03-13 22:19:00,
2013-03-13 15:24:00,69.4,57.1,30.06,South,171,1.0,9.0,65,0.00,,,0.00,612,HR-IXP-WINDi_r2_v1.2,2013-03-13 22:24:00,
2013-03-13 15:30:00,70.3,57.1,30.05,SSW,200,4.0,7.0,63,0.00,,,0.00,568,HR-IXP-WINDi_r2_v1.2,2013-03-13 22:30:00,
2013-03-13 15:35:00,70.5,56.8,30.06,SSW,192,5.0,7.0,62,0.00,,,0.00,589,HR-IXP-WINDi_r2_v1.2,2013-03-13 22:35:00,
2013-03-13 15:40:00,71.1,56.9,30.05,SW,217,6.0,7.0,61,0.00,,,0.00,568,HR-IXP-WINDi_r2_v1.2,2013-03-13 22:40:00,
2013-03-13 15:45:00,71.1,56.9,30.05,SW,235,2.0,9.0,61,0.00,,,0.00,545,HR-IXP-WINDi_r2_v1.2,2013-03-13 22:45:00,
2013-03-13 15:51:00,71.4,56.7,30.05,SSW,209,4.0,9.0,60,0.00,,,0.00,487,HR-IXP-WINDi_r2_v1.2,2013-03-13 22:51:00,
2013-03-13 15:56:00,72.2,57.5,30.05,SSE,157,3.0,7.0,60,0.00,,,0.00,396,HR-IXP-WINDi_r2_v1.2,2013-03-13 22:56:00,
2013-03-13 16:01:00,72.2,56.1,30.04,SSW,198,2.0,8.0,57,0.00,,,0.00,323,HR-IXP-WINDi_r2_v1.2,2013-03-13 23:01:00,
2013-03-13 16:06:00,71.8,56.2,30.04,SW,214,3.0,8.0,58,0.00,,,0.00,316,HR-IXP-WINDi_r2_v1.2,2013-03-13 23:06:00,
2013-03-13 16:11:00,72.3,57.1,30.04,South,184,4.0,7.0,59,0.00,,,0.00,336,HR-IXP-WINDi_r2_v1.2,2013-03-13 23:11:00,
2013-03-13 16:17:00,73.2,56.0,30.04,SSE,165,4.0,6.0,55,0.00,,,0.00,360,HR-IXP-WINDi_r2_v1.2,2013-03-13 23:17:00,
2013-03-13 16:22:00,73.0,55.8,30.04,WSW,237,4.0,6.0,55,0.00,,,0.00,378,HR-IXP-WINDi_r2_v1.2,2013-03-13 23:22:00,
2013-03-13 16:27:00,72.8,55.6,30.04,SSW,208,4.0,7.0,55,0.00,,,0.00,380,HR-IXP-WINDi_r2_v1.2,2013-03-13 23:27:00,
2013-03-13 16:32:00,73.0,56.3,30.04,South,176,1.0,7.0,56,0.00,,,0.00,381,HR-IXP-WINDi_r2_v1.2,2013-03-13 23:32:00,
2013-03-13 16:37:00,75.2,56.8,30.04,SSE,163,2.0,6.0,53,0.00,,,0.00,385,HR-IXP-WINDi_r2_v1.2,2013-03-13 23:37:00,
2013-03-13 16:43:00,75.2,56.8,30.04,SSE,160,2.0,6.0,53,0.00,,,0.00,380,HR-IXP-WINDi_r2_v1.2,2013-03-13 23:43:00,
2013-03-13 16:48:00,74.7,56.4,30.04,SSW,205,3.0,6.0,53,0.00,,,0.00,357,HR-IXP-WINDi_r2_v1.2,2013-03-13 23:48:00,
2013-03-13 16:53:00,74.3,55.5,30.04,SSW,197,1.0,6.0,52,0.00,,,0.00,281,HR-IXP-WINDi_r2_v1.2,2013-03-13 23:53:00,
2013-03-13 16:58:00,73.5,55.8,30.04,South,183,3.0,7.0,54,0.00,,,0.00,345,HR-IXP-WINDi_r2_v1.2,2013-03-13 23:58:00,
2013-03-13 17:04:00,74.9,57.1,30.04,South,180,2.0,7.0,54,0.00,,,0.00,329,HR-IXP-WINDi_r2_v1.2,2013-03-14 00:04:00,
2013-03-13 17:09:00,76.3,57.3,30.04,SW,215,2.0,5.0,52,0.00,,,0.00,313,HR-IXP-WINDi_r2_v1.2,2013-03-14 00:09:00,
2013-03-13 17:14:00,75.5,57.1,30.04,South,184,3.0,5.0,53,0.00,,,0.00,297,HR-IXP-WINDi_r2_v1.2,2013-03-14 00:14:00,
2013-03-13 17:19:00,75.5,57.1,30.04,South,171,3.0,5.0,53,0.00,,,0.00,279,HR-IXP-WINDi_r2_v1.2,2013-03-14 00:19:00,
2013-03-13 17:24:00,75.8,56.9,30.03,South,190,2.0,4.0,52,0.00,,,0.00,260,HR-IXP-WINDi_r2_v1.2,2013-03-14 00:24:00,
2013-03-13 17:30:00,75.7,57.3,30.03,SW,220,4.0,5.0,53,0.00,,,0.00,158,HR-IXP-WINDi_r2_v1.2,2013-03-14 00:30:00,
2013-03-13 17:35:00,74.7,56.9,30.03,SW,223,1.0,5.0,54,0.00,,,0.00,223,HR-IXP-WINDi_r2_v1.2,2013-03-14 00:35:00,
2013-03-13 17:40:00,75.8,57.4,30.03,South,172,1.0,5.0,53,0.00,,,0.00,207,HR-IXP-WINDi_r2_v1.2,2013-03-14 00:40:00,
2013-03-13 17:45:00,76.6,57.1,30.03,South,170,2.0,3.0,51,0.00,,,0.00,193,HR-IXP-WINDi_r2_v1.2,2013-03-14 00:45:00,
2013-03-13 17:50:00,76.7,57.2,30.03,South,169,0.0,4.0,51,0.00,,,0.00,176,HR-IXP-WINDi_r2_v1.2,2013-03-14 00:50:00,
2013-03-13 17:55:00,76.7,57.2,30.03,South,169,2.0,4.0,51,0.00,,,0.00,158,HR-IXP-WINDi_r2_v1.2,2013-03-14 00:55:00,
2013-03-13 18:00:00,75.1,57.3,30.03,SSE,167,1.0,4.0,54,0.00,,,0.00,139,HR-IXP-WINDi_r2_v1.2,2013-03-14 01:00:00,
2013-03-13 18:05:00,74.8,57.5,30.03,South,190,1.0,4.0,55,0.00,,,0.00,123,HR-IXP-WINDi_r2_v1.2,2013-03-14 01:05:00,
2013-03-13 18:11:00,73.5,57.3,30.04,SSE,155,0.0,5.0,57,0.00,,,0.00,105,HR-IXP-WINDi_r2_v1.2,2013-03-14 01:11:00,
2013-03-13 18:16:00,72.5,56.8,30.04,SSE,157,3.0,5.0,58,0.00,,,0.00,91,HR-IXP-WINDi_r2_v1.2,2013-03-14 01:16:00,
2013-03-13 18:21:00,71.5,56.8,30.04,SSE,154,4.0,5.0,60,0.00,,,0.00,76,HR-IXP-WINDi_r2_v1.2,2013-03-14 01:21:00,
2013-03-13 18:26:00,70.7,57.0,30.04,SSE,154,0.0,5.0,62,0.00,,,0.00,60,HR-IXP-WINDi_r2_v1.2,2013-03-14 01:26:00,
2013-03-13 18:31:00,69.9,56.7,30.04,SSE,159,2.0,6.0,63,0.00,,,0.00,46,HR-IXP-WINDi_r2_v1.2,2013-03-14 01:31:00,
2013-03-13 18:36:00,69.8,56.6,30.04,SSE,154,2.0,6.0,63,0.00,,,0.00,33,HR-IXP-WINDi_r2_v1.2,2013-03-14 01:36:00,
2013-03-13 18:41:00,69.2,56.4,30.05,South,185,2.0,5.0,64,0.00,,,0.00,25,HR-IXP-WINDi_r2_v1.2,2013-03-14 01:41:00,
2013-03-13 18:46:00,68.5,56.2,30.05,SW,225,4.0,4.0,65,0.00,,,0.00,16,HR-IXP-WINDi_r2_v1.2,2013-03-14 01:46:00,
2013-03-13 18:51:00,67.6,56.2,30.05,SSW,196,2.0,4.0,67,0.00,,,0.00,11,HR-IXP-WINDi_r2_v1.2,2013-03-14 01:51:00,
2013-03-13 18:57:00,66.9,55.9,30.05,SSW,211,2.0,4.0,68,0.00,,,0.00,5,HR-IXP-WINDi_r2_v1.2,2013-03-14 01:57:00,
2013-03-13 19:02:00,66.3,55.8,30.06,South,181,2.0,5.0,69,0.00,,,0.00,0,HR-IXP-WINDi_r2_v1.2,2013-03-14 02:02:00,
2013-03-13 19:07:00,66.0,55.9,30.06,SSE,166,1.0,5.0,70,0.00,,,0.00,0,HR-IXP-WINDi_r2_v1.2,2013-03-14 02:07:00,
2013-03-13 19:12:00,65.2,55.1,30.06,South,171,3.0,4.0,70,0.00,,,0.00,0,HR-IXP-WINDi_r2_v1.2,2013-03-14 02:12:00,
2013-03-13 19:18:00,64.8,55.1,30.06,SSE,166,2.0,4.0,71,0.00,,,0.00,0,HR-IXP-WINDi_r2_v1.2,2013-03-14 02:18:00,
2013-03-13 19:23:00,64.5,55.2,30.06,SSE,165,1.0,3.0,72,0.00,,,0.00,0,HR-IXP-WINDi_r2_v1.2,2013-03-14 02:23:00,
2013-03-13 19:28:00,63.8,54.9,30.06,SSE,165,2.0,4.0,73,0.00,,,0.00,0,HR-IXP-WINDi_r2_v1.2,2013-03-14 02:28:00,
2013-03-13 19:33:00,63.2,54.7,30.06,South,170,0.0,4.0,74,0.00,,,0.00,0,HR-IXP-WINDi_r2_v1.2,2013-03-14 02:33:00,
2013-03-13 19:38:00,62.7,54.6,30.06,South,172,2.0,4.0,75,0.00,,,0.00,0,HR-IXP-WINDi_r2_v1.2,2013-03-14 02:38:00,
2013-03-13 19:43:00,62.2,54.5,30.07,SSE,166,1.0,4.0,76,0.00,,,0.00,0,HR-IXP-WINDi_r2_v1.2,2013-03-14 02:43:00,
2013-03-13 19:49:00,61.8,54.5,30.07,SSE,168,2.0,4.0,77,0.00,,,0.00,0,HR-IXP-WINDi_r2_v1.2,2013-03-14 02:49:00,
2013-03-13 19:54:00,61.5,54.5,30.07,South,175,2.0,4.0,78,0.00,,,0.00,0,HR-IXP-WINDi_r2_v1.2,2013-03-14 02:54:00,
2013-03-13 19:59:00,61.1,54.5,30.07,SSE,164,1.0,5.0,79,0.00,,,0.00,0,HR-IXP-WINDi_r2_v1.2,2013-03-14 02:59:00,
2013-03-13 20:04:00,60.9,54.6,30.07,SSE,165,1.0,5.0,80,0.00,,,0.00,0,HR-IXP-WINDi_r2_v1.2,2013-03-14 03:04:00,
2013-03-13 20:10:00,60.7,54.4,30.07,SSE,160,0.0,4.0,80,0.00,,,0.00,0,HR-IXP-WINDi_r2_v1.2,2013-03-14 03:10:00,
2013-03-13 20:15:00,60.5,54.6,30.07,SSE,157,2.0,5.0,81,0.00,,,0.00,0,HR-IXP-WINDi_r2_v1.2,2013-03-14 03:15:00,
2013-03-13 20:20:00,60.3,54.4,30.07,SSE,157,1.0,5.0,81,0.00,,,0.00,0,HR-IXP-WINDi_r2_v1.2,2013-03-14 03:20:00,
2013-03-13 20:25:00,60.2,54.6,30.07,SSE,151,1.0,4.0,82,0.00,,,0.00,0,HR-IXP-WINDi_r2_v1.2,2013-03-14 03:25:00,
2013-03-13 20:31:00,60.1,54.5,30.07,SSE,153,3.0,4.0,82,0.00,,,0.00,0,HR-IXP-WINDi_r2_v1.2,2013-03-14 03:31:00,
2013-03-13 20:36:00,59.9,54.7,30.08,SSE,152,3.0,4.0,83,0.00,,,0.00,0,HR-IXP-WINDi_r2_v1.2,2013-03-14 03:36:00,
2013-03-13 20:41:00,59.7,54.5,30.08,SSE,158,1.0,3.0,83,0.00,,,0.00,0,HR-IXP-WINDi_r2_v1.2,2013-03-14 03:41:00,
2013-03-13 20:46:00,59.6,54.4,30.08,SSE,161,1.0,3.0,83,0.00,,,0.00,0,HR-IXP-WINDi_r2_v1.2,2013-03-14 03:46:00,
2013-03-13 20:51:00,59.4,54.5,30.08,SSE,150,1.0,4.0,84,0.00,,,0.00,0,HR-IXP-WINDi_r2_v1.2,2013-03-14 03:51:00,
2013-03-13 20:57:00,59.3,54.4,30.08,SSE,154,1.0,4.0,84,0.00,,,0.00,0,HR-IXP-WINDi_r2_v1.2,2013-03-14 03:57:00,
2013-03-13 21:00:00,59.3,54.4,30.08,SSE,150,3.0,4.0,84,0.00,,,0.00,0,HR-IXP-WINDi_r2_v1.2,2013-03-14 04:00:00,
2013-03-13 21:05:00,59.1,54.5,30.08,SSE,158,2.0,4.0,85,0.00,,,0.00,0,HR-IXP-WINDi_r2_v1.2,2013-03-14 04:05:00,
2013-03-13 21:10:00,58.9,54.3,30.08,SSE,161,1.0,4.0,85,0.00,,,0.00,0,HR-IXP-WINDi_r2_v1.2,2013-03-14 04:10:00,
2013-03-13 21:15:00,58.7,54.5,30.09,SW,214,4.0,6.0,86,0.00,,,0.00,0,HR-IXP-WINDi_r2_v1.2,2013-03-14 04:15:00,
2013-03-13 21:20:00,58.3,54.1,30.09,SW,226,2.0,6.0,86,0.00,,,0.00,0,HR-IXP-WINDi_r2_v1.2,2013-03-14 04:20:00,
2013-03-13 21:25:00,57.4,53.2,30.09,WSW,244,4.0,4.0,86,0.00,,,0.00,0,HR-IXP-WINDi_r2_v1.2,2013-03-14 04:25:00,
2013-03-13 21:30:00,56.2,52.6,30.10,SW,215,2.0,5.0,88,0.00,,,0.00,0,HR-IXP-WINDi_r2_v1.2,2013-03-14 04:30:00,
2013-03-13 21:36:00,55.6,52.3,30.10,SW,231,5.0,5.0,89,0.00,,,0.00,0,HR-IXP-WINDi_r2_v1.2,2013-03-14 04:36:00,
2013-03-13 21:41:00,55.0,52.1,30.10,SSW,194,2.0,5.0,90,0.00,,,0.00,0,HR-IXP-WINDi_r2_v1.2,2013-03-14 04:41:00,
2013-03-13 21:46:00,54.8,52.2,30.10,SSW,207,2.0,5.0,91,0.00,,,0.00,0,HR-IXP-WINDi_r2_v1.2,2013-03-14 04:46:00,
2013-03-13 21:51:00,54.8,52.5,30.10,SSW,192,3.0,5.0,92,0.00,,,0.00,0,HR-IXP-WINDi_r2_v1.2,2013-03-14 04:51:00,
2013-03-13 21:56:00,54.7,52.4,30.10,SW,229,3.0,5.0,92,0.00,,,0.00,0,HR-IXP-WINDi_r2_v1.2,2013-03-14 04:56:00,
2013-03-13 22:01:00,54.7,52.6,30.10,SW,217,4.0,5.0,93,0.00,,,0.00,0,HR-IXP-WINDi_r2_v1.2,2013-03-14 05:01:00,
2013-03-13 22:07:00,54.7,52.6,30.10,SSW,202,0.0,5.0,93,0.00,,,0.00,0,HR-IXP-WINDi_r2_v1.2,2013-03-14 05:07:00,
2013-03-13 22:12:00,54.5,52.5,30.11,SW,218,1.0,5.0,93,0.00,,,0.00,0,HR-IXP-WINDi_r2_v1.2,2013-03-14 05:12:00,
2013-03-13 22:17:00,54.4,52.6,30.11,SSW,194,0.0,5.0,94,0.00,,,0.00,0,HR-IXP-WINDi_r2_v1.2,2013-03-14 05:17:00,
2013-03-13 22:22:00,54.2,52.4,30.10,SSE,167,0.0,5.0,94,0.00,,,0.00,0,HR-IXP-WINDi_r2_v1.2,2013-03-14 05:22:00,
2013-03-13 22:28:00,54.1,52.3,30.10,SSE,154,0.0,5.0,94,0.00,,,0.00,0,HR-IXP-WINDi_r2_v1.2,2013-03-14 05:28:00,
2013-03-13 22:33:00,54.2,52.4,30.11,SSE,154,2.0,3.0,94,0.00,,,0.00,0,HR-IXP-WINDi_r2_v1.2,2013-03-14 05:33:00,
2013-03-13 22:38:00,54.1,52.3,30.10,South,173,2.0,4.0,94,0.00,,,0.00,0,HR-IXP-WINDi_r2_v1.2,2013-03-14 05:38:00,
2013-03-13 22:43:00,54.1,52.3,30.11,SSE,153,0.0,4.0,94,0.00,,,0.00,0,HR-IXP-WINDi_r2_v1.2,2013-03-14 05:43:00,
2013-03-13 22:48:00,53.9,52.4,30.11,SSE,155,2.0,5.0,95,0.00,,,0.00,0,HR-IXP-WINDi_r2_v1.2,2013-03-14 05:48:00,
2013-03-13 22:54:00,53.9,52.4,30.11,SSE,154,2.0,5.0,95,0.00,,,0.00,0,HR-IXP-WINDi_r2_v1.2,2013-03-14 05:54:00,
2013-03-13 22:59:00,54.0,52.5,30.11,SSE,159,0.0,4.0,95,0.00,,,0.00,0,HR-IXP-WINDi_r2_v1.2,2013-03-14 05:59:00,
2013-03-13 23:04:00,54.1,52.6,30.11,SSE,159,0.0,4.0,95,0.00,,,0.00,0,HR-IXP-WINDi_r2_v1.2,2013-03-14 06:04:00,
2013-03-13 23:09:00,54.0,52.5,30.12,SSE,154,1.0,4.0,95,0.00,,,0.00,0,HR-IXP-WINDi_r2_v1.2,2013-03-14 06:09:00,
2013-03-13 23:14:00,54.0,52.5,30.11,SSE,154,0.0,4.0,95,0.00,,,0.00,0,HR-IXP-WINDi_r2_v1.2,2013-03-14 06:14:00,
2013-03-13 23:20:00,54.0,52.5,30.11,SSE,154,1.0,3.0,95,0.00,,,0.00,0,HR-IXP-WINDi_r2_v1.2,2013-03-14 06:20:00,
2013-03-13 23:25:00,54.0,52.5,30.11,SSE,154,0.0,3.0,95,0.00,,,0.00,0,HR-IXP-WINDi_r2_v1.2,2013-03-14 06:25:00,
2013-03-13 23:30:00,54.1,52.6,30.11,SSE,154,2.0,3.0,95,0.00,,,0.00,0,HR-IXP-WINDi_r2_v1.2,2013-03-14 06:30:00,
2013-03-13 23:35:00,54.1,52.9,30.11,SSE,148,2.0,3.0,96,0.00,,,0.00,0,HR-IXP-WINDi_r2_v1.2,2013-03-14 06:35:00,
2013-03-13 23:41:00,54.0,52.5,30.11,SSE,163,0.0,4.0,95,0.00,,,0.00,0,HR-IXP-WINDi_r2_v1.2,2013-03-14 06:41:00,
2013-03-13 23:46:00,53.9,52.4,30.11,SSE,161,1.0,4.0,95,0.00,,,0.00,0,HR-IXP-WINDi_r2_v1.2,2013-03-14 06:46:00,
2013-03-13 23:51:00,54.0,52.8,30.11,SSE,167,2.0,4.0,96,0.00,,,0.00,0,HR-IXP-WINDi_r2_v1.2,2013-03-14 06:51:00,
2013-03-13 23:57:00,53.8,52.3,30.11,SSE,154,1.0,4.0,95,0.00,,,0.00,0,HR-IXP-WINDi_r2_v1.2,2013-03-14 06:57:00,